Location: Rumah Long Bangan
(2.8362°N, 113.7519°E)
Time: 06:41:03
(UTC+00:00)

CZ-4C R/B - Pass Details

Date: 24 October 2021
Orbit: 597 x 1405 km, 63.4° (Epoch: 28 November)

Event Time Altitude Azimuth Distance (km) Brightness Sun altitude
Rises 12:02:48 0° 238° (WSW) 2,836 6.0 -28.4°
Reaches altitude 10° 12:06:02 10° 265° (W) 1,930 5.0 -29.2°
Maximum altitude 12:08:13 14° 296° (WNW) 1,716 4.4 -29.7°
Drops below altitude 10° 12:10:28 10° 327° (NNW) 1,985 4.3 -30.2°
Enters shadow 12:10:55 - 332° (NNW) 2,090 4.4 -30.3°
